• In Russia
  • List of Countries
  • For 7 days
  • Water Temperature
  • Weather Map
  • Weather Widgets
  • user-avatar
    Login

    Hourly Weather Igls

    Today, 20 February, Thursday

    Time Temperature Precipitation Wind Pressure Humidity
    00:00 -3°C° 0 mm 1 mps 688 mmHg 83%
    01:00 -3°C° 0 mm 1 mps 688 mmHg 80%
    02:00 -2°C° 0 mm 1 mps 688 mmHg 77%
    03:00 -2°C° 0 mm 1 mps 688 mmHg 74%
    04:00 -2°C° 0 mm 1 mps 688 mmHg 71%
    05:00 -2°C° 0 mm 1 mps 688 mmHg 69%
    06:00 -1°C° 0 mm 1 mps 688 mmHg 66%
    07:00 -2°C° 0 mm 2 mps 688 mmHg 65%
    08:00 +1°C° 0 mm 1 mps 688 mmHg 63%
    09:00 +3°C° 0 mm 1 mps 688 mmHg 61%
    10:00 +4°C° 0 mm 1 mps 688 mmHg 59%
    11:00 +5°C° 0 mm 1 mps 688 mmHg 61%
    12:00 +6°C° 0 mm 1 mps 687 mmHg 62%
    13:00 +6°C° 0 mm 0 mps 687 mmHg 63%
    14:00 +8°C° 0 mm 1 mps 687 mmHg 65%
    15:00 +8°C° 0 mm 1 mps 686 mmHg 67%
    16:00 +8°C° 0 mm 1 mps 686 mmHg 69%
    17:00 +6°C° 0 mm 1 mps 686 mmHg 70%
    18:00 +4°C° 0 mm 2 mps 686 mmHg 71%
    19:00 +2°C° 0 mm 2 mps 685 mmHg 71%
    20:00 +2°C° 0 mm 2 mps 685 mmHg 68%
    21:00 +2°C° 0 mm 2 mps 686 mmHg 64%
    22:00 +1°C° 0 mm 2 mps 686 mmHg 60%
    23:00 +1°C° 0 mm 2 mps 686 mmHg 60%

    Tomorrow, 21 February, Friday

    Time Temperature Precipitation Wind Pressure Humidity
    00:00 +2°C° 0 mm 1 mps 686 mmHg 60%
    01:00 +1°C° 0 mm 1 mps 686 mmHg 61%
    02:00 +2°C° 0 mm 1 mps 686 mmHg 63%
    03:00 +1°C° 0 mm 2 mps 686 mmHg 65%
    04:00 +1°C° 0 mm 2 mps 687 mmHg 67%
    05:00 +1°C° 0.3 mm 2 mps 687 mmHg 74%
    06:00 +1°C° 0.3 mm 2 mps 688 mmHg 81%
    07:00 -1°C° 0.3 mm 2 mps 688 mmHg 88%
    14:00 +4°C° 0 mm 2 mps 690 mmHg 93%
    15:00 +5°C° 0 mm 1 mps 690 mmHg 80%
    16:00 +5°C° 0 mm 1 mps 690 mmHg 79%
    17:00 +4°C° 0 mm 1 mps 690 mmHg 83%
    18:00 +2°C° 0 mm 1 mps 690 mmHg 86%
    19:00 +1°C° 0 mm 1 mps 691 mmHg 90%
    20:00 +1°C° 0 mm 1 mps 691 mmHg 85%
    21:00 +2°C° 0 mm 1 mps 691 mmHg 80%
    22:00 +2°C° 0 mm 1 mps 691 mmHg 75%
    23:00 +2°C° 0 mm 1 mps 691 mmHg 72%

    Day after tomorrow, 22 February, Saturday

    Time Temperature Precipitation Wind Pressure Humidity
    00:00 +2°C° 0 mm 1 mps 691 mmHg 69%
    01:00 +3°C° 0 mm 1 mps 691 mmHg 66%
    02:00 +3°C° 0 mm 1 mps 691 mmHg 62%
    03:00 +3°C° 0 mm 1 mps 691 mmHg 58%
    04:00 +2°C° 0 mm 2 mps 691 mmHg 54%
    05:00 +2°C° 0 mm 2 mps 691 mmHg 52%
    06:00 +2°C° 0 mm 2 mps 691 mmHg 50%
    07:00 +3°C° 0 mm 2 mps 691 mmHg 48%
    08:00 +6°C° 0 mm 1 mps 691 mmHg 53%
    09:00 +8°C° 0 mm 1 mps 691 mmHg 59%
    10:00 +9°C° 0 mm 1 mps 692 mmHg 65%
    11:00 +10°C° 0 mm 1 mps 692 mmHg 66%
    12:00 +11°C° 0 mm 1 mps 692 mmHg 68%
    13:00 +12°C° 0 mm 1 mps 692 mmHg 69%
    14:00 +12°C° 0 mm 1 mps 691 mmHg 71%
    15:00 +12°C° 0 mm 1 mps 691 mmHg 73%
    16:00 +12°C° 0 mm 1 mps 690 mmHg 74%
    17:00 +10°C° 0 mm 1 mps 690 mmHg 70%
    18:00 +9°C° 0 mm 1 mps 690 mmHg 66%
    19:00 +6°C° 0 mm 2 mps 691 mmHg 62%
    20:00 +6°C° 0 mm 2 mps 691 mmHg 60%
    21:00 +7°C° 0 mm 1 mps 691 mmHg 59%
    22:00 +7°C° 0 mm 1 mps 691 mmHg 57%
    23:00 +6°C° 0 mm 1 mps 691 mmHg 57%

    23 February, Sunday

    Time Temperature Precipitation Wind Pressure Humidity
    00:00 +6°C° 0 mm 1 mps 691 mmHg 57%
    01:00 +6°C° 0 mm 1 mps 691 mmHg 57%
    02:00 +6°C° 0 mm 1 mps 691 mmHg 58%
    03:00 +5°C° 0 mm 2 mps 691 mmHg 58%
    04:00 +5°C° 0 mm 2 mps 690 mmHg 59%
    05:00 +5°C° 0 mm 2 mps 690 mmHg 60%
    06:00 +5°C° 0 mm 2 mps 690 mmHg 62%
    07:00 +6°C° 0 mm 1 mps 691 mmHg 64%
    08:00 +7°C° 0.1 mm 1 mps 691 mmHg 68%
    09:00 +7°C° 0.1 mm 1 mps 691 mmHg 73%
    10:00 +8°C° 0.1 mm 1 mps 691 mmHg 77%
    11:00 +9°C° 0 mm 1 mps 690 mmHg 78%
    12:00 +10°C° 0 mm 1 mps 690 mmHg 78%
    13:00 +9°C° 0 mm 2 mps 690 mmHg 79%
    14:00 +9°C° 0 mm 2 mps 689 mmHg 81%
    15:00 +9°C° 0 mm 2 mps 689 mmHg 84%
    16:00 +9°C° 0 mm 2 mps 688 mmHg 87%
    17:00 +8°C° 0 mm 2 mps 688 mmHg 87%
    18:00 +8°C° 0 mm 2 mps 689 mmHg 88%
    19:00 +8°C° 0 mm 2 mps 689 mmHg 88%
    20:00 +8°C° 0 mm 2 mps 689 mmHg 88%
    21:00 +8°C° 0 mm 2 mps 689 mmHg 88%
    22:00 +8°C° 0 mm 2 mps 689 mmHg 88%
    23:00 +8°C° 0 mm 2 mps 688 mmHg 88%

    24 February, Monday

    Time Temperature Precipitation Wind Pressure Humidity
    00:00 +8°C° 0 mm 2 mps 688 mmHg 89%
    01:00 +8°C° 0 mm 2 mps 688 mmHg 89%
    02:00 +8°C° 0 mm 2 mps 688 mmHg 90%
    03:00 +8°C° 0 mm 2 mps 688 mmHg 90%
    04:00 +7°C° 0 mm 2 mps 688 mmHg 91%
    05:00 +7°C° 0 mm 2 mps 688 mmHg 90%
    06:00 +7°C° 0 mm 2 mps 688 mmHg 90%
    07:00 +7°C° 0 mm 2 mps 688 mmHg 89%
    08:00 +8°C° 0 mm 2 mps 688 mmHg 88%
    09:00 +10°C° 0 mm 1 mps 688 mmHg 87%
    10:00 +11°C° 0 mm 1 mps 688 mmHg 86%
    11:00 +12°C° 0 mm 1 mps 688 mmHg 83%
    12:00 +12°C° 0 mm 1 mps 688 mmHg 79%
    13:00 +13°C° 0 mm 1 mps 688 mmHg 75%
    14:00 +13°C° 0 mm 1 mps 687 mmHg 76%
    15:00 +13°C° 0 mm 1 mps 687 mmHg 77%
    16:00 +13°C° 0 mm 1 mps 686 mmHg 78%
    17:00 +11°C° 0 mm 1 mps 686 mmHg 77%
    18:00 +10°C° 0 mm 1 mps 686 mmHg 75%
    19:00 +9°C° 0 mm 1 mps 685 mmHg 74%
    20:00 +8°C° 0 mm 1 mps 685 mmHg 72%
    21:00 +8°C° 0 mm 1 mps 685 mmHg 69%
    22:00 +8°C° 0 mm 1 mps 685 mmHg 67%
    23:00 +8°C° 0 mm 1 mps 685 mmHg 67%

    25 February, Tuesday

    Time Temperature Precipitation Wind Pressure Humidity
    00:00 +7°C° 0 mm 1 mps 684 mmHg 67%
    01:00 +7°C° 0 mm 1 mps 684 mmHg 67%
    02:00 +7°C° 0 mm 1 mps 684 mmHg 67%
    03:00 +6°C° 0 mm 1 mps 684 mmHg 66%
    04:00 +6°C° 0 mm 1 mps 683 mmHg 66%
    05:00 +6°C° 0 mm 1 mps 683 mmHg 66%
    06:00 +6°C° 0 mm 1 mps 683 mmHg 66%
    07:00 +6°C° 0 mm 1 mps 683 mmHg 66%
    08:00 +7°C° 0 mm 1 mps 683 mmHg 65%
    09:00 +8°C° 0 mm 0 mps 683 mmHg 65%
    10:00 +9°C° 0 mm 0 mps 683 mmHg 65%
    11:00 +10°C° 0 mm 0 mps 682 mmHg 64%
    12:00 +11°C° 0 mm 0 mps 682 mmHg 63%
    13:00 +11°C° 0 mm 0 mps 681 mmHg 63%
    14:00 +12°C° 0 mm 1 mps 681 mmHg 66%
    15:00 +11°C° 0 mm 1 mps 680 mmHg 70%
    16:00 +11°C° 0 mm 1 mps 679 mmHg 73%
    17:00 +10°C° 0 mm 1 mps 679 mmHg 78%
    18:00 +8°C° 0 mm 1 mps 679 mmHg 83%
    19:00 +7°C° 0 mm 1 mps 679 mmHg 88%
    20:00 +7°C° 0.2 mm 1 mps 679 mmHg 89%
    21:00 +7°C° 0.2 mm 1 mps 679 mmHg 91%
    22:00 +7°C° 0.2 mm 1 mps 678 mmHg 92%
    23:00 +6°C° 0.1 mm 1 mps 678 mmHg 93%
    Show more